Weather in Irnur

Russia / Mari El Republic     56°41′31″N   49°17′45″E
temp.,
°C
wind,
m/s
gust,
m/s
humid.,
%
clouds,
%
prec.,
mm/h
press.,
hPa
HPBL,
m
27 february, sat
sat2700:00−15se71495100 4.1 1002688
03:00−14ese61195100 6.3 1000583
06:00−15e61095100 1.8 999527
09:00−14ene61094100 2.6 1000517
12:00−13ene6992100 0.3 1001620
15:00−12ne6992100 0.4 1003607
18:00−13nne61193100 0.3 1004485
21:00−15n5109699 0.3 1005248
28 february, sun
sun2800:00−17n51097100 0.1 1006206
03:00−20n599992 0.1 1008177
06:00−20n599893 0.0 1009193
09:00−19n589683 0.0 1009243
12:00−16n579366 0.0 1011326
15:00−15n589275 0.0 1012459
18:00−18n359792 0.0 101476
21:00−20n349853 0.0 101664
1 march, mon
mon100:00−22n34981 0.0 101840
03:00−23n34991 0.0 102034
06:00−23n23980 0.0 102120
09:00−20nnw22950 0.0 102282
12:00−15wnw228714 0.0 1021244
15:00−12w248936 0.0 1020353
18:00−16sw339725 0.0 101928
21:00−15sw499761 0.0 1017224
2 march, tue
tue200:00−14ssw51096100 0.0 1013266
03:00−12ssw61295100 0.1 1009347
06:00−10ssw71394100 0.6 1004446
09:00−7ssw71294100 1.2 1001457
12:00−3ssw61096100 0.6 999440
15:000sw36100100 1.8 997370
18:00−1w4897100 1.1 997420
21:00−2nw2598100 1.6 998204
3 march, wed
wed300:00−3n71395100 1.1 999561
03:00−5n61294100 1.6 1000470
06:00−7nnw51094100 0.2 1001355
09:00−6nnw5994100 0.4 1002397
12:00−3nnw6993100 0.3 1004734
15:00−4nnw71088100 0.4 1005813
18:00−7nnw41094100 0.1 1006335
21:00−9nw489292 0.1 1008151